Lansing, MI

11:36 AM EDT on August 17, 2017 (GMT -0400)
Capital City

Weather History for KLAN - April, 2013

Change the Weather History Date:

Tuesday, April 16, 2013

  Actual Average Record
Temperature  
Mean Temperature 50 °F 48 °F  
Max Temperature 56 °F 58 °F 86 °F (2002)
Min Temperature 43 °F 37 °F 10 °F (1875)
Degree Days  
Heating Degree Days 15 17  
Month to date heating degree days 396 326  
Since 1 July heating degree days 6122 6190  
Cooling Degree Days 0 0  
Month to date cooling degree days 0 0  
Year to date cooling degree days 0 1  
Moisture  
Dew Point 39 °F    
Average Humidity 67    
Maximum Humidity 93    
Minimum Humidity 41    
Precipitation  
Precipitation 0.30 in 0.11 in 2.06 in (1972)
Month to date precipitation 4.24 1.63  
Year to date precipitation 10.42 6.81  
Snow  
Snow 0.00 in 0.10 in 4.00 in (1961)
Month to date snowfall T 1.5  
Since 1 July snowfall 29.7 50.7  
Snow Depth 0.00 in    
Sea Level Pressure  
Sea Level Pressure 30.05 in    
Wind  
Wind Speed 9 mph (WNW)    
Max Wind Speed 21 mph    
Max Gust Speed 28 mph    
Visibility 8 miles    
Events Rain    
T = Trace of Precipitation, MM = Missing Value Source: NWS Daily Summary

Daily Weather History Graph

Daily Weather History Graph

Search for Another Location

Airport or City:

Trip Planner

Search our weather history database for the weather conditions in past years. The results will help you decide how hot, cold, wet, or windy it might be!

Date:

Astronomy

Apr. 16, 2013 Rise Set
Actual Time 6:54 AM EDT 8:22 PM EDT
Civil Twilight 6:25 AM EDT 8:51 PM EDT
Nautical Twilight 5:49 AM EDT 9:27 PM EDT
Astronomical Twilight 5:12 AM EDT 10:05 PM EDT
Moon 11:08 AM EDT (4/16) 1:22 AM EDT (4/16)
Length of Visible Light 14h 26m
Length of Day
13h 27m
Waxing Crescent, 33% of the Moon is Illuminated
Apr 16
Waxing Crescent
Apr 18
First Quarter
Apr 25
Full
May 2
Last Quarter
May 9
New

Hourly Weather History & Observations

Time (EDT) Temp. Windchill Dew Point Humidity Pressure Visibility Wind Dir Wind Speed Gust Speed Precip Events Conditions
12:01 AM 55.4 °F - 53.6 °F 94% 29.90 in 2.5 mi NW 10.4 mph 16.1 mph 0.00 in Rain Light Rain
12:09 AM 51.8 °F - 48.2 °F 88% 29.90 in 2.5 mi NNW 16.1 mph 21.9 mph 0.05 in Rain Heavy Rain
12:15 AM 48.2 °F - 44.6 °F 87% 29.90 in 2.5 mi NNW 17.3 mph 23.0 mph 0.08 in Rain Rain
12:31 AM 46.4 °F 40.7 °F 44.6 °F 93% 29.91 in 4.0 mi NNW 12.7 mph - 0.10 in Rain Light Rain
12:53 AM 46.9 °F - 45.0 °F 93% 29.93 in 4.0 mi NW 8.1 mph - 0.12 in Rain Light Rain
1:10 AM 46.4 °F 42.4 °F 44.6 °F 93% 29.92 in - NW 8.1 mph - 0.04 in Rain Rain
1:36 AM 46.4 °F 43.5 °F 44.6 °F 93% 29.92 in - NNW 5.8 mph - 0.16 in Rain Rain
1:53 AM 46.9 °F - 45.0 °F 93% 29.94 in - WNW 6.9 mph - 0.18 in Rain Light Rain
2:00 AM 46.4 °F 41.9 °F 44.6 °F 93% 29.94 in 3.0 mi WNW 9.2 mph - 0.01 in Rain Rain
2:53 AM 46.9 °F - 45.0 °F 93% 29.94 in 3.0 mi West 4.6 mph - 0.08 in Rain Light Rain
3:53 AM 46.9 °F - 44.1 °F 90% 29.94 in 10.0 mi West 6.9 mph - 0.05 in Rain Light Rain
4:53 AM 46.9 °F - 44.1 °F 90% 29.95 in 10.0 mi WSW 6.9 mph - 0.00 in   Overcast
5:04 AM 46.4 °F 42.9 °F 44.6 °F 93% 29.95 in 10.0 mi WNW 6.9 mph - N/A   Overcast
5:53 AM 46.0 °F 41.9 °F 43.0 °F 89% 29.96 in 10.0 mi WNW 8.1 mph - N/A   Overcast
6:14 AM 44.6 °F 39.7 °F 42.8 °F 93% 29.98 in 10.0 mi WNW 9.2 mph - N/A   Overcast
6:53 AM 44.1 °F 38.1 °F 41.0 °F 89% 30.00 in 10.0 mi NW 11.5 mph - N/A   Overcast
7:53 AM 43.0 °F 40.3 °F 39.0 °F 86% 30.03 in 10.0 mi NW 4.6 mph - 0.00 in   Overcast
8:04 AM 42.8 °F 40.1 °F 39.2 °F 87% 30.03 in 10.0 mi WNW 4.6 mph - 0.00 in Rain Light Rain
8:16 AM 42.8 °F 40.1 °F 39.2 °F 87% 30.03 in 10.0 mi WNW 4.6 mph - 0.00 in   Overcast
8:53 AM 44.1 °F 40.8 °F 39.9 °F 85% 30.05 in 10.0 mi West 5.8 mph - 0.00 in   Overcast
9:10 AM 44.6 °F 40.7 °F 39.2 °F 81% 30.05 in 8.0 mi West 6.9 mph - N/A   Overcast
9:53 AM 44.1 °F 39.0 °F 39.0 °F 82% 30.07 in 9.0 mi West 9.2 mph - N/A   Overcast
10:16 AM 44.6 °F 40.2 °F 37.4 °F 76% 30.06 in 10.0 mi WNW 8.1 mph - N/A   Overcast
10:53 AM 46.9 °F - 37.9 °F 71% 30.09 in 10.0 mi West 8.1 mph - N/A   Mostly Cloudy
11:04 AM 46.4 °F 41.5 °F 37.4 °F 71% 30.09 in 10.0 mi WNW 10.4 mph - N/A   Overcast
11:32 AM 48.2 °F - 37.4 °F 66% 30.10 in 10.0 mi West 11.5 mph - N/A   Overcast
11:53 AM 48.9 °F - 37.0 °F 64% 30.10 in - WSW 9.2 mph - N/A   Scattered Clouds
12:53 PM 51.1 °F - 37.9 °F 61% 30.10 in - WSW 15.0 mph - N/A   Partly Cloudy
1:53 PM 52.0 °F - 35.1 °F 53% 30.12 in 10.0 mi WNW 17.3 mph 25.3 mph N/A   Clear
2:53 PM 55.0 °F - 34.0 °F 45% 30.14 in 10.0 mi WNW 13.8 mph 20.7 mph N/A   Clear
3:53 PM 55.0 °F - 33.1 °F 43% 30.15 in 10.0 mi West 15.0 mph 21.9 mph N/A   Clear
4:53 PM 54.0 °F - 30.9 °F 41% 30.15 in - West 11.5 mph 18.4 mph N/A   Clear
5:53 PM 55.0 °F - 32.0 °F 42% 30.16 in 10.0 mi NW 6.9 mph - N/A   Clear
6:53 PM 54.0 °F - 30.9 °F 41% 30.19 in 10.0 mi NW 8.1 mph - N/A   Clear
7:53 PM 51.1 °F - 30.9 °F 46% 30.20 in 10.0 mi WNW 5.8 mph - N/A   Clear
8:53 PM 50.0 °F - 32.0 °F 50% 30.22 in 10.0 mi West 5.8 mph - N/A   Clear
9:53 PM 46.9 °F - 34.0 °F 61% 30.24 in 10.0 mi WNW 3.5 mph - N/A   Clear
10:53 PM 46.9 °F - 33.1 °F 59% 30.25 in - NNW 5.8 mph - N/A   Clear
11:53 PM 46.0 °F 41.9 °F 33.1 °F 61% 30.26 in 10.0 mi North 8.1 mph - N/A   Clear